星链-6138 (STARLINK-6138 )

导读 | 豆包AI

STARLINK-6138是美国太空探索技术公司(SpaceX)星链(Starlink)星座组网卫星,于2023年7月16日发射升空。该卫星隶属于星链卫星互联网项目,旨在为全球提供高速低延迟互联网接入服务,尤其服务偏远地区与网络基础设施薄弱区域,是SpaceX大规模构建卫星互联网星座进程中,补充组网的一颗节点卫星。

基本信息
目录编号:
57329
目录名称:
STARLINK-6138
国际标识:
2023-099B
轨道中心:
EARTH
卫星名称:
星链-6138
卫星全名:
星链-6138 (STARLINK-6138 )
卫星状态:
在轨 (已飞行973 天)
发射日期:
2023-07-16 UTC
国别 :
美国 (US)
星等 :
--
轨道信息
数据来源 国际轨道数据 AOE轨道数据
星历时间 2026-03-15T22:00:02+0800
9小时前
查看轨道信息
2026-03-12T09:00:00+0800
3天前
查看轨道信息
半长轴 6925.486km 6937.208km
偏心率 0.0001921 0.000192
轨道倾角 43.001° 43.002°
近地点辐角 234.646° 276.389°
升交点赤经 217.113° 236.398°
平近点角 38.938° 240.240°
近地点 546.018km 557.739km
远地点 548.68km 560.403km
周期 95.595分钟 95.838分钟
每日圈数 15.063553 15.025388
详细信息
固有亮度:
5
最大亮度:
2.5
卫星平台:
Starlink v1.5
覆盖范围:
全球
运营商:
太空探索技术公司
运营商所在国:
美国
制造商(研发单位):
太空探索技术公司
制造商所在国:
美国
使用方式:
暂无
卫星简介
星链(Starlink)计划是由太空探索技术公司(SpaceX)提出的一个巨型低轨卫星互联网星座项目,计划在2019年至2024年间在太空搭建由约1.2万颗卫星组成的“星链”网络,其中1584颗将部署在地球上空550千米处的近地轨道,并从2020年开始工作。该卫星仍在工作。
2D轨道图
3D轨道图
轨道高度分析图
轨道倾角分析图
轨道综合分析图
查看轨道综合分析图